When you browse on this site, cookies collect data to enhance your experience and personalize the content and advertising you see.
Visit our Privacy Policy to learn more. By continuing to use the site, you agree to this use of cookies and data.
  • In Deutschland
  • Länderverzeichnis
  • Für 7 Tage
  • Wassertemperatur
  • Satellitenkarten
  • Wetterkarte
  • Widgets
  • user-avatar
    Anmelden

    Stündliche Wetter Meschede

    Heute, 10 Dezember, Montag

    Zeit Temperatur Niederschläge Wind Luftdruck Luftfeuchtigkeit
    00:00 +2°C° 0.1 mm 6 m/S 734 mmHg 79%
    01:00 +1°C° 0 mm 4 m/S 734 mmHg 82%
    02:00 +1°C° 0 mm 5 m/S 735 mmHg 81%
    03:00 +1°C° 0 mm 5 m/S 735 mmHg 80%
    04:00 +1°C° 0 mm 5 m/S 736 mmHg 80%
    05:00 +1°C° 0.1 mm 5 m/S 736 mmHg 80%
    06:00 +1°C° 0.1 mm 5 m/S 737 mmHg 80%
    07:00 0°C° 0 mm 4 m/S 737 mmHg 85%
    08:00 +1°C° 0 mm 4 m/S 738 mmHg 83%
    09:00 +1°C° 0 mm 5 m/S 738 mmHg 81%
    10:00 +1°C° 0 mm 5 m/S 738 mmHg 79%
    11:00 +2°C° 0.2 mm 6 m/S 738 mmHg 76%
    12:00 +2°C° 0.2 mm 6 m/S 738 mmHg 73%
    13:00 +3°C° 0.2 mm 7 m/S 738 mmHg 70%
    14:00 +2°C° 0.3 mm 6 m/S 738 mmHg 71%
    15:00 +2°C° 0.3 mm 6 m/S 738 mmHg 72%
    16:00 +2°C° 0.3 mm 5 m/S 738 mmHg 73%
    17:00 +1°C° 0.1 mm 5 m/S 738 mmHg 75%
    18:00 +1°C° 0.1 mm 5 m/S 739 mmHg 77%
    19:00 +1°C° 0.1 mm 5 m/S 739 mmHg 79%
    20:00 +1°C° 0.1 mm 5 m/S 739 mmHg 80%
    21:00 +1°C° 0.1 mm 5 m/S 739 mmHg 81%
    22:00 +1°C° 0.1 mm 5 m/S 739 mmHg 82%
    23:00 +1°C° 0.1 mm 5 m/S 739 mmHg 83%

    Morgen, 11 Dezember, Dienstag

    Zeit Temperatur Niederschläge Wind Luftdruck Luftfeuchtigkeit
    00:00 0°C° 0.1 mm 5 m/S 739 mmHg 85%
    01:00 0°C° 0.1 mm 5 m/S 740 mmHg 86%
    02:00 0°C° 0.1 mm 5 m/S 740 mmHg 86%
    03:00 0°C° 0.1 mm 5 m/S 739 mmHg 86%
    04:00 0°C° 0.1 mm 5 m/S 739 mmHg 87%
    05:00 0°C° 0 mm 5 m/S 740 mmHg 87%
    06:00 0°C° 0 mm 4 m/S 740 mmHg 87%
    07:00 0°C° 0 mm 4 m/S 740 mmHg 87%
    08:00 0°C° 0 mm 4 m/S 740 mmHg 86%
    09:00 0°C° 0 mm 4 m/S 740 mmHg 85%
    10:00 0°C° 0 mm 4 m/S 740 mmHg 84%
    11:00 +1°C° 0 mm 4 m/S 740 mmHg 82%
    12:00 +3°C° 0 mm 4 m/S 740 mmHg 79%
    13:00 +3°C° 0 mm 4 m/S 740 mmHg 77%
    14:00 +3°C° 0.1 mm 4 m/S 740 mmHg 79%
    15:00 +3°C° 0.1 mm 3 m/S 740 mmHg 81%
    16:00 +2°C° 0.1 mm 3 m/S 740 mmHg 83%
    17:00 +2°C° 0 mm 3 m/S 740 mmHg 86%
    18:00 +2°C° 0 mm 2 m/S 740 mmHg 89%
    19:00 +1°C° 0 mm 2 m/S 740 mmHg 91%
    20:00 +1°C° 0 mm 2 m/S 740 mmHg 92%
    21:00 +2°C° 0 mm 1 m/S 741 mmHg 93%
    22:00 +2°C° 0 mm 1 m/S 741 mmHg 94%
    23:00 +2°C° 0 mm 1 m/S 741 mmHg 94%

    übermorgen, 12 Dezember, Mittwoch

    Zeit Temperatur Niederschläge Wind Luftdruck Luftfeuchtigkeit
    00:00 +2°C° 0 mm 1 m/S 741 mmHg 94%
    01:00 +2°C° 0 mm 1 m/S 741 mmHg 94%
    02:00 +2°C° 0 mm 1 m/S 741 mmHg 94%
    03:00 +2°C° 0 mm 1 m/S 741 mmHg 94%
    04:00 0°C° 0 mm 0 m/S 741 mmHg 94%
    05:00 0°C° 0 mm 0 m/S 741 mmHg 94%
    06:00 0°C° 0 mm 0 m/S 741 mmHg 95%
    07:00 0°C° 0 mm 0 m/S 741 mmHg 95%
    08:00 +1°C° 0 mm 1 m/S 741 mmHg 93%
    09:00 +2°C° 0 mm 1 m/S 742 mmHg 92%
    10:00 +2°C° 0 mm 1 m/S 742 mmHg 90%
    11:00 +3°C° 0 mm 1 m/S 742 mmHg 87%
    12:00 +3°C° 0 mm 1 m/S 741 mmHg 84%
    13:00 +4°C° 0 mm 1 m/S 741 mmHg 81%
    14:00 +3°C° 0 mm 1 m/S 741 mmHg 83%
    15:00 +3°C° 0 mm 1 m/S 741 mmHg 84%
    16:00 +3°C° 0 mm 1 m/S 741 mmHg 86%
    17:00 +2°C° 0 mm 1 m/S 741 mmHg 88%
    18:00 +2°C° 0 mm 1 m/S 741 mmHg 90%
    19:00 +1°C° 0 mm 1 m/S 741 mmHg 91%
    20:00 +1°C° 0 mm 1 m/S 741 mmHg 92%
    21:00 +1°C° 0 mm 1 m/S 741 mmHg 93%
    22:00 0°C° 0 mm 1 m/S 740 mmHg 94%
    23:00 0°C° 0 mm 1 m/S 740 mmHg 94%

    13 Dezember, Donnerstag

    Zeit Temperatur Niederschläge Wind Luftdruck Luftfeuchtigkeit
    00:00 0°C° 0 mm 1 m/S 740 mmHg 95%
    01:00 0°C° 0 mm 1 m/S 740 mmHg 95%
    02:00 0°C° 0 mm 1 m/S 739 mmHg 94%
    03:00 -2°C° 0 mm 2 m/S 739 mmHg 93%
    04:00 -2°C° 0 mm 2 m/S 739 mmHg 93%
    05:00 -2°C° 0 mm 2 m/S 738 mmHg 92%
    06:00 -2°C° 0 mm 2 m/S 738 mmHg 92%
    07:00 -3°C° 0 mm 2 m/S 738 mmHg 91%
    08:00 -2°C° 0 mm 2 m/S 738 mmHg 87%
    09:00 -2°C° 0 mm 3 m/S 738 mmHg 83%
    10:00 -2°C° 0 mm 3 m/S 738 mmHg 80%
    11:00 -1°C° 0 mm 3 m/S 737 mmHg 75%
    12:00 -2°C° 0 mm 4 m/S 737 mmHg 71%
    13:00 -1°C° 0 mm 4 m/S 737 mmHg 67%
    14:00 -2°C° 0 mm 4 m/S 737 mmHg 70%
    15:00 -1°C° 0 mm 3 m/S 737 mmHg 74%
    16:00 -2°C° 0 mm 3 m/S 736 mmHg 77%
    17:00 -2°C° 0 mm 3 m/S 737 mmHg 79%
    18:00 -4°C° 0 mm 3 m/S 737 mmHg 82%
    19:00 -4°C° 0 mm 3 m/S 737 mmHg 84%
    20:00 -4°C° 0 mm 3 m/S 737 mmHg 85%
    21:00 -4°C° 0 mm 3 m/S 737 mmHg 85%
    22:00 -5°C° 0 mm 3 m/S 737 mmHg 86%
    23:00 -5°C° 0 mm 3 m/S 737 mmHg 86%

    14 Dezember, Freitag

    Zeit Temperatur Niederschläge Wind Luftdruck Luftfeuchtigkeit
    00:00 -5°C° 0 mm 3 m/S 738 mmHg 87%
    01:00 -4°C° 0 mm 2 m/S 738 mmHg 87%
    02:00 -4°C° 0 mm 2 m/S 738 mmHg 86%
    03:00 -4°C° 0 mm 2 m/S 738 mmHg 86%
    04:00 -4°C° 0 mm 2 m/S 738 mmHg 86%
    05:00 -4°C° 0 mm 2 m/S 738 mmHg 85%
    06:00 -4°C° 0 mm 2 m/S 739 mmHg 85%
    07:00 -4°C° 0 mm 2 m/S 739 mmHg 84%
    08:00 -4°C° 0 mm 2 m/S 739 mmHg 81%
    09:00 -3°C° 0 mm 2 m/S 740 mmHg 78%
    10:00 -3°C° 0 mm 2 m/S 740 mmHg 75%
    11:00 -2°C° 0 mm 2 m/S 740 mmHg 70%
    12:00 -1°C° 0 mm 2 m/S 741 mmHg 65%
    13:00 +2°C° 0 mm 1 m/S 741 mmHg 60%
    14:00 +1°C° 0 mm 1 m/S 741 mmHg 64%
    15:00 0°C° 0 mm 1 m/S 741 mmHg 68%
    16:00 0°C° 0 mm 1 m/S 741 mmHg 73%
    17:00 -1°C° 0 mm 1 m/S 742 mmHg 74%
    18:00 -1°C° 0 mm 1 m/S 742 mmHg 76%
    19:00 -4°C° 0 mm 2 m/S 742 mmHg 78%
    20:00 -4°C° 0 mm 2 m/S 743 mmHg 79%
    21:00 -4°C° 0 mm 2 m/S 743 mmHg 79%
    22:00 -4°C° 0 mm 2 m/S 743 mmHg 79%
    23:00 -2°C° 0 mm 1 m/S 743 mmHg 80%

    15 Dezember, Samstag

    Zeit Temperatur Niederschläge Wind Luftdruck Luftfeuchtigkeit
    00:00 -2°C° 0 mm 1 m/S 744 mmHg 80%
    01:00 -2°C° 0 mm 1 m/S 744 mmHg 81%
    02:00 -2°C° 0 mm 1 m/S 744 mmHg 81%
    03:00 -2°C° 0 mm 1 m/S 744 mmHg 82%
    04:00 -2°C° 0 mm 1 m/S 744 mmHg 82%
    05:00 -4°C° 0 mm 2 m/S 744 mmHg 82%
    06:00 -4°C° 0 mm 2 m/S 744 mmHg 82%
    07:00 -4°C° 0 mm 2 m/S 744 mmHg 83%
    08:00 -3°C° 0 mm 2 m/S 744 mmHg 82%
    09:00 -2°C° 0 mm 2 m/S 744 mmHg 82%
    10:00 -1°C° 0 mm 2 m/S 744 mmHg 82%
    11:00 +1°C° 0 mm 2 m/S 744 mmHg 82%
    12:00 +2°C° 0 mm 2 m/S 744 mmHg 82%
    13:00 +2°C° 0 mm 3 m/S 744 mmHg 83%
    14:00 +2°C° 0 mm 3 m/S 744 mmHg 86%
    15:00 +2°C° 0 mm 3 m/S 743 mmHg 89%
    16:00 +1°C° 0 mm 3 m/S 743 mmHg 92%
    17:00 +1°C° 0.1 mm 3 m/S 743 mmHg 91%
    18:00 0°C° 0.1 mm 4 m/S 743 mmHg 91%
    19:00 0°C° 0.1 mm 4 m/S 743 mmHg 91%
    20:00 +1°C° 0.5 mm 4 m/S 742 mmHg 91%
    21:00 +1°C° 0.5 mm 4 m/S 742 mmHg 90%
    22:00 +1°C° 0.5 mm 5 m/S 742 mmHg 90%
    23:00 +1°C° 0.8 mm 5 m/S 742 mmHg 90%
    Mehr zeigen